When you browse on this site, cookies collect data to enhance your experience and personalize the content and advertising you see.
Visit our Privacy Policy to learn more. By continuing to use the site, you agree to this use of cookies and data.
  • In Hungary
  • List of Countries
  • For 7 days
  • Water Temperature
  • Satellite Maps
  • Weather Map
  • News
  • Weather Widgets
  • user-avatar
    Login

    Hourly Weather Midobe

    Today, 12 December, Wednesday

    Time Temperature Precipitation Wind Pressure Humidity
    00:00 +22°C° 0 mm 0 mps 724 mmHg 95%
    01:00 +24°C° 0 mm 1 mps 723 mmHg 96%
    02:00 +22°C° 0.2 mm 0 mps 723 mmHg 96%
    03:00 +22°C° 0.2 mm 0 mps 723 mmHg 96%
    04:00 +22°C° 0.2 mm 0 mps 723 mmHg 96%
    05:00 +22°C° 0.2 mm 0 mps 723 mmHg 95%
    06:00 +22°C° 0.2 mm 0 mps 723 mmHg 94%
    07:00 +22°C° 0 mm 0 mps 724 mmHg 92%
    08:00 +24°C° 0.1 mm 0 mps 724 mmHg 84%
    09:00 +26°C° 0.1 mm 0 mps 724 mmHg 75%
    10:00 +30°C° 0.1 mm 1 mps 724 mmHg 67%
    11:00 +31°C° 0.4 mm 1 mps 724 mmHg 64%
    12:00 +32°C° 0.4 mm 1 mps 724 mmHg 61%
    13:00 +32°C° 0.4 mm 1 mps 723 mmHg 58%
    14:00 +31°C° 1.1 mm 1 mps 723 mmHg 64%
    15:00 +30°C° 1.1 mm 1 mps 722 mmHg 69%
    16:00 +29°C° 1.1 mm 1 mps 722 mmHg 74%
    17:00 +28°C° 0.8 mm 1 mps 722 mmHg 80%
    18:00 +27°C° 0.8 mm 1 mps 722 mmHg 85%
    19:00 +25°C° 0.8 mm 1 mps 723 mmHg 91%
    20:00 +25°C° 0.1 mm 1 mps 723 mmHg 92%
    21:00 +25°C° 0.1 mm 1 mps 724 mmHg 93%
    22:00 +24°C° 0.1 mm 1 mps 724 mmHg 94%
    23:00 +24°C° 0 mm 1 mps 724 mmHg 95%

    Tomorrow, 13 December, Thursday

    Time Temperature Precipitation Wind Pressure Humidity
    00:00 +24°C° 0 mm 1 mps 724 mmHg 95%
    01:00 +24°C° 0 mm 1 mps 723 mmHg 95%
    02:00 +24°C° 0 mm 1 mps 723 mmHg 96%
    03:00 +23°C° 0 mm 1 mps 723 mmHg 96%
    04:00 +23°C° 0 mm 1 mps 723 mmHg 97%
    05:00 +23°C° 0 mm 1 mps 723 mmHg 96%
    06:00 +22°C° 0 mm 0 mps 723 mmHg 96%
    07:00 +22°C° 0 mm 0 mps 724 mmHg 95%
    08:00 +23°C° 0.6 mm 0 mps 724 mmHg 89%
    09:00 +27°C° 0.6 mm 1 mps 725 mmHg 82%
    10:00 +29°C° 0.6 mm 1 mps 725 mmHg 76%
    11:00 +30°C° 0.9 mm 1 mps 725 mmHg 71%
    12:00 +31°C° 0.9 mm 1 mps 724 mmHg 66%
    13:00 +32°C° 0.9 mm 1 mps 724 mmHg 62%
    14:00 +31°C° 0.7 mm 1 mps 723 mmHg 65%
    15:00 +30°C° 0.7 mm 1 mps 722 mmHg 68%
    16:00 +30°C° 0.7 mm 2 mps 722 mmHg 71%
    17:00 +28°C° 0.6 mm 1 mps 722 mmHg 77%
    18:00 +27°C° 0.6 mm 1 mps 723 mmHg 84%
    19:00 +25°C° 0.6 mm 1 mps 723 mmHg 90%
    20:00 +25°C° 0.2 mm 1 mps 724 mmHg 92%
    21:00 +25°C° 0.2 mm 1 mps 724 mmHg 93%
    22:00 +25°C° 0.2 mm 1 mps 725 mmHg 94%
    23:00 +25°C° 0 mm 1 mps 724 mmHg 94%

    Day after tomorrow, 14 December, Friday

    Time Temperature Precipitation Wind Pressure Humidity
    00:00 +25°C° 0 mm 1 mps 724 mmHg 95%
    01:00 +24°C° 0 mm 1 mps 724 mmHg 95%
    02:00 +24°C° 0 mm 1 mps 723 mmHg 95%
    03:00 +24°C° 0 mm 1 mps 723 mmHg 96%
    04:00 +24°C° 0 mm 1 mps 723 mmHg 96%
    05:00 +24°C° 0 mm 1 mps 723 mmHg 95%
    06:00 +24°C° 0 mm 1 mps 724 mmHg 95%
    07:00 +23°C° 0 mm 0 mps 724 mmHg 94%
    08:00 +26°C° 0 mm 1 mps 725 mmHg 87%
    09:00 +28°C° 0 mm 1 mps 725 mmHg 79%
    10:00 +29°C° 0 mm 1 mps 726 mmHg 71%
    11:00 +30°C° 0 mm 1 mps 725 mmHg 66%
    12:00 +31°C° 0 mm 1 mps 724 mmHg 62%
    13:00 +32°C° 0 mm 2 mps 723 mmHg 57%
    14:00 +31°C° 0.7 mm 2 mps 723 mmHg 63%
    15:00 +30°C° 0.7 mm 2 mps 722 mmHg 69%
    16:00 +29°C° 0.7 mm 2 mps 722 mmHg 75%
    17:00 +28°C° 0.8 mm 2 mps 722 mmHg 81%
    18:00 +26°C° 0.8 mm 1 mps 723 mmHg 87%
    19:00 +25°C° 0.8 mm 1 mps 723 mmHg 93%
    20:00 +25°C° 0 mm 1 mps 724 mmHg 93%
    21:00 +25°C° 0 mm 1 mps 724 mmHg 94%
    22:00 +25°C° 0 mm 1 mps 725 mmHg 95%
    23:00 +24°C° 0 mm 1 mps 724 mmHg 95%

    15 December, Saturday

    Time Temperature Precipitation Wind Pressure Humidity
    00:00 +24°C° 0 mm 1 mps 724 mmHg 96%
    01:00 +24°C° 0 mm 1 mps 723 mmHg 96%
    02:00 +24°C° 0 mm 1 mps 723 mmHg 97%
    03:00 +24°C° 0 mm 1 mps 723 mmHg 97%
    04:00 +24°C° 0 mm 1 mps 722 mmHg 97%
    05:00 +24°C° 0 mm 1 mps 723 mmHg 96%
    06:00 +24°C° 0 mm 1 mps 724 mmHg 96%
    07:00 +22°C° 0 mm 0 mps 724 mmHg 95%
    08:00 +26°C° 0.1 mm 1 mps 725 mmHg 89%
    09:00 +27°C° 0.1 mm 1 mps 725 mmHg 83%
    10:00 +28°C° 0.1 mm 1 mps 725 mmHg 77%
    11:00 +30°C° 0.1 mm 1 mps 725 mmHg 70%
    12:00 +31°C° 0.1 mm 1 mps 724 mmHg 63%
    13:00 +32°C° 0.1 mm 2 mps 723 mmHg 57%
    14:00 +32°C° 0.3 mm 2 mps 723 mmHg 60%
    15:00 +31°C° 0.3 mm 2 mps 722 mmHg 63%
    16:00 +30°C° 0.3 mm 2 mps 722 mmHg 67%
    17:00 +29°C° 0.3 mm 2 mps 722 mmHg 74%
    18:00 +27°C° 0.3 mm 2 mps 722 mmHg 82%
    19:00 +26°C° 0.3 mm 1 mps 723 mmHg 89%
    20:00 +25°C° 0.1 mm 1 mps 723 mmHg 91%
    21:00 +25°C° 0.1 mm 1 mps 724 mmHg 93%
    22:00 +25°C° 0.1 mm 1 mps 724 mmHg 95%
    23:00 +24°C° 0.1 mm 1 mps 724 mmHg 95%

    16 December, Sunday

    Time Temperature Precipitation Wind Pressure Humidity
    00:00 +24°C° 0.1 mm 1 mps 724 mmHg 95%
    01:00 +24°C° 0.1 mm 1 mps 723 mmHg 96%
    02:00 +24°C° 0 mm 1 mps 723 mmHg 96%
    03:00 +24°C° 0 mm 1 mps 723 mmHg 97%
    04:00 +23°C° 0 mm 1 mps 723 mmHg 97%
    05:00 +24°C° 0 mm 1 mps 723 mmHg 96%
    06:00 +24°C° 0 mm 1 mps 724 mmHg 95%
    07:00 +24°C° 0 mm 1 mps 724 mmHg 95%
    08:00 +25°C° 0 mm 1 mps 724 mmHg 86%
    09:00 +27°C° 0 mm 1 mps 725 mmHg 78%
    10:00 +29°C° 0 mm 1 mps 725 mmHg 69%
    11:00 +30°C° 0.1 mm 2 mps 724 mmHg 64%
    12:00 +31°C° 0.1 mm 2 mps 724 mmHg 59%
    13:00 +32°C° 0.1 mm 2 mps 723 mmHg 53%
    14:00 +32°C° 0.2 mm 2 mps 723 mmHg 56%
    15:00 +31°C° 0.2 mm 2 mps 722 mmHg 59%
    16:00 +31°C° 0.2 mm 2 mps 721 mmHg 62%
    17:00 +29°C° 0.5 mm 2 mps 722 mmHg 70%
    18:00 +27°C° 0.5 mm 2 mps 722 mmHg 78%
    19:00 +26°C° 0.5 mm 1 mps 723 mmHg 86%
    20:00 +25°C° 0.2 mm 1 mps 723 mmHg 88%
    21:00 +25°C° 0.2 mm 1 mps 724 mmHg 90%
    22:00 +24°C° 0.2 mm 1 mps 724 mmHg 93%
    23:00 +24°C° 0.1 mm 1 mps 724 mmHg 93%

    17 December, Monday

    Time Temperature Precipitation Wind Pressure Humidity
    00:00 +24°C° 0.1 mm 1 mps 723 mmHg 93%
    01:00 +24°C° 0.1 mm 1 mps 723 mmHg 93%
    02:00 +24°C° 0 mm 1 mps 723 mmHg 94%
    03:00 +23°C° 0 mm 1 mps 723 mmHg 96%
    04:00 +23°C° 0 mm 1 mps 723 mmHg 97%
    05:00 +23°C° 0 mm 1 mps 723 mmHg 96%
    06:00 +24°C° 0 mm 1 mps 723 mmHg 95%
    07:00 +22°C° 0 mm 0 mps 724 mmHg 94%
    08:00 +26°C° 0 mm 1 mps 724 mmHg 85%
    09:00 +27°C° 0 mm 1 mps 725 mmHg 76%
    10:00 +29°C° 0 mm 1 mps 725 mmHg 67%
    11:00 +30°C° 0.4 mm 1 mps 724 mmHg 64%
    12:00 +31°C° 0.4 mm 1 mps 724 mmHg 60%
    13:00 +32°C° 0.4 mm 2 mps 723 mmHg 57%
    14:00 +31°C° 0.6 mm 2 mps 723 mmHg 59%
    15:00 +31°C° 0.6 mm 2 mps 722 mmHg 62%
    16:00 +30°C° 0.6 mm 2 mps 722 mmHg 65%
    17:00 +29°C° 0.2 mm 2 mps 722 mmHg 72%
    18:00 +27°C° 0.2 mm 2 mps 722 mmHg 79%
    19:00 +26°C° 0.2 mm 1 mps 723 mmHg 86%
    20:00 +25°C° 0.1 mm 1 mps 723 mmHg 88%
    21:00 +25°C° 0.1 mm 1 mps 724 mmHg 90%
    22:00 +24°C° 0.1 mm 1 mps 724 mmHg 93%
    23:00 +24°C° 0 mm 1 mps 724 mmHg 94%
    Show more